Location: Christian Reformed Church
(43.0975°N, 93.8113°W)
Time: 09:32:23
(UTC+00:00)

IRS-P3 - Pass Details

Date: 14 March 2026
Orbit: 810 x 816 km, 99.0° (Epoch: 20 April)

Event Time Altitude Azimuth Distance (km) Brightness Sun altitude
Rises 02:01:17 0° 218° (SW) 3,330 7.6 -19.2°
Reaches altitude 10° 02:05:09 10° 246° (WSW) 2,405 7.3 -19.9°
Maximum altitude 02:07:22 13° 271° (W) 2,232 7.4 -20.3°
Drops below altitude 10° 02:09:35 10° 296° (WNW) 2,412 7.7 -20.7°
Sets 02:13:30 0° 325° (NW) 3,350 8.1 -21.4°
